Location: *
(44.1392°N, 4.8079°E)
Time: 20:51:40
(UTC+00:00)

NPP - Pass Details

Date: 21 June 2021
Orbit: 826 x 828 km, 98.7° (Epoch: 02 August)

Event Time Altitude Azimuth Distance (km) Brightness Sun altitude
Rises 01:06:31 0° 18° (NNE) 3,378 8.5 -19.7°
Reaches altitude 10° 01:08:56 10° 23° (NNE) 2,440 7.3 -19.6°
Maximum altitude 01:14:14 55° 101° (E) 991 4.1 -19.2°
Enters shadow 01:16:57 28° 166° (SSE) 1,516 4.6 -19.0°
